Regional Weather Roundup
Issued by NWS

Home | Current Version | Previous Version | Text Only | Print | Product List | Glossary Off
Versions: 1 2 3 4 5 6 7 8 9 10 11 12 13 14 15 16 17 18 19 20 21 22 23 24 25 26 27 28 29 30 31 32 33 34 35 36 37 38 39 40 41 42 43 44 45 46 47 48 49 50

000
ASUS43 KBIS 280802
RWRND

NORTH DAKOTA REGIONAL WEATHER ROUNDUP
NATIONAL WEATHER SERVICE BISMARCK ND
300 AM CDT THU APR 28 2016

NOTE: "FAIR" INDICATES FEW OR NO CLOUDS BELOW 12,000 FEET WITH NO
SIGNIFICANT WEATHER AND/OR OBSTRUCTIONS TO VISIBILITY.


NDZ001>003-009>011-017-280900-
NORTHWEST NORTH DAKOTA

CITY           SKY/WX    TMP DP  RH WIND       PRES   REMARKS
WILLISTON      CLOUDY    40  26  57 NE9       30.08S
MINOT          MOCLDY    41  24  51 N10       30.07R
MINOT AFB      CLOUDY    38  24  55 NE8       30.07R
$$

NDZ018>021-031>035-040>046-280900-
SOUTHWEST NORTH DAKOTA

CITY           SKY/WX    TMP DP  RH WIND       PRES   REMARKS
BISMARCK       LGT RAIN  42  35  76 NE10      30.01R
DICKINSON      CLOUDY    36  29  75 N8        29.98S
GARRISON         N/A     41  27  57 NE8       30.02S
HETTINGER ARPT LGT SNOW  33  31  92 N7        30.00S FOG
$$

NDZ004>008-012>016-024-026-027-054-280900-
NORTHEAST NORTH DAKOTA

CITY           SKY/WX    TMP DP  RH WIND       PRES   REMARKS
GRAND FORKS    MOCLDY    42  24  49 NE9       30.04S
GRND FRKS AFB  CLOUDY    41  22  47 NE7       30.05R
DEVILS LAKE    CLOUDY    41  21  44 NE13      30.05S
$$

NDZ022-023-025-028>030-036>039-047>053-280900-
SOUTHEAST NORTH DAKOTA

CITY           SKY/WX    TMP DP  RH WIND       PRES   REMARKS
FARGO          CLOUDY    44  30  57 N9        29.99F
JAMESTOWN      CLOUDY    40  35  83 CALM      30.00R
$$





USA.gov is the U.S. government's official web portal to all federal, state and local government web resources and services.